Regional Weather Roundup
Issued by NWS Albany, NY

Home | Current Version | Previous Version | Text Only | Print | Product List | Glossary On
Versions: 1 2 3 4 5 6 7 8 9 10 11 12 13 14 15 16 17 18 19 20 21 22 23 24 25 26 27 28 29 30 31 32 33 34 35 36 37 38 39 40 41 42 43 44 45 46 47 48 49 50
000
ASUS41 KALY 251810
RWRALY

NEW YORK STATE HOURLY WEATHER ROUNDUP
NATIONAL WEATHER SERVICE ALBANY NY
100 PM EST SAT FEB 25 2017

NOTE: "FAIR" INDICATES FEW OR NO CLOUDS BELOW 12,000 FEET WITH NO
SIGNIFICANT WEATHER AND/OR NO OBSTRUCTIONS TO VISIBILITY.

NYZ032-033-038>043-046>054-057>066-NYZ062>081-082-084-251900-
EAST


CITY           SKY/WX    TMP DP  RH WIND       PRES   REMARKS
ALBANY         PTSUNNY   68  52  56 S16G31    29.54F
GLENS FALLS    PTSUNNY   69  52  54 S18G29    29.52F
POUGHKEEPSIE   CLOUDY    63  54  72 S13G22    29.60F
NEWBURGH       MOSUNNY   64  57  77 S18G29    29.62F
MONTGOMERY     PTSUNNY   71  55  56 S17G28    29.56F
WHITE PLAINS   PTSUNNY   63  55  75 SE15      29.63F
ISLIP          PTSUNNY   62  55  77 S15       29.66F
NEW YORK CITY  PTSUNNY   62  54  74 S13       29.64F
CENTRAL PARK   MOSUNNY   59  53  80 S13G18    29.66F
$$

NYZ005>009-017-018-044>046-055-056-251900-
CENTRAL


CITY           SKY/WX    TMP DP  RH WIND       PRES   REMARKS
FULTON         LGT RAIN  45  41  86 W24G32    29.46R
SYRACUSE       RAIN      57  53  86 S16       29.42S
ROME           LGT RAIN  64  55  72 S15       29.42F
ELMIRA         LGT RAIN  58  50  75 SW14G22   29.41F
BINGHAMTON     HVY RAIN  57  54  89 S14G23    29.45F FOG
MONTICELLO     PTSUNNY  N/A N/A N/A S18G24    29.56F
$$

NYZ026>034-041>043-087-251900-
NORTH


CITY           SKY/WX    TMP DP  RH WIND       PRES   REMARKS
WATERTOWN      RAIN      42  42 100 SW14G23   29.42R FOG
FORT DRUM      NOT AVBL
OGDENSBURG     PTSUNNY   54  54  97 SE5       29.28F
MASSENA        CLOUDY    42  41  96 E8        29.34F FOG
SARANAC LAKE   CLOUDY    60  51  72 S15       29.41F
PLATTSBURGH    CLOUDY    64  53  67 S14G22    29.45F
$$

NYZ001>004-010>016-019>021-085-251900-
WEST


CITY           SKY/WX    TMP DP  RH WIND       PRES   REMARKS
NIAGARA FALLS  PTSUNNY   45  34  65 W25G38    29.50F
BUFFALO        CLOUDY    41  34  76 SW25G36   29.51F
DUNKIRK        CLOUDY    41  33  73 SW18G31   29.57R
JAMESTOWN      CLOUDY    39  34  81 W17       29.53R WCI  30
WELLSVILLE     LGT RAIN  41  37  86 W15G26    29.52R FOG
ROCHESTER      CLOUDY    44  37  76 W16G25    29.49S
PENN YAN       LGT RAIN  47  41  80 VRB5G21   29.46R
$$

             KEY
       WCI = WIND CHILL INDEX
       VSB = VISIBILITY
       HX  = HEAT INDEX
$$



USA.gov is the U.S. government's official web portal to all federal, state and local government web resources and services.